This demonstration page uses our WeatherBlox Daily Observations layout. Learn more.

Hourly Observations for January 19, 2018

Temp ( °F °C ) Dew Point ( °F °C ) Humidity (%) Winds ( mph kmh ) Pressure ( in mb ) Visibility ( mi km ) Precip ( " mm )
12:15 am 00:15 Clear 37 3 27 -2.8 66 66 SW 7 11 29.88 1012 10 16.0934 0 0
12:35 am 00:35 Clear 36 2 26 -3.1 69 69 SW 7 11 29.88 1012 10 16.0934 0 0
12:55 am 00:55 Clear 37 3 26 -3.1 65 65 SSW 9 15 29.88 1012 10 16.0934 0 0
1:15 am 01:15 Clear 37 2.6 26 -3.1 66 66 SW 10 17 29.88 1012 10 16.0934 0 0
1:35 am 01:35 Clear 36 2.3 26 -3.3 67 67 SSW 10 17 29.88 1012 10 16.0934 0 0
1:55 am 01:55 Clear 35 1.5 26 -3.5 70 70 SW 7 11 29.85 1011 10 16.0934 0 0
2:15 am 02:15 Clear 34 1.2 26 -3.6 71 71 SW 10 17 29.85 1011 10 16.0934 0 0
2:35 am 02:35 Clear 33 0.8 25 -4 71 71 SW 8 13 29.85 1011 10 16.0934 0 0
2:55 am 02:55 Clear 34 1 25 -4.1 69 69 SW 7 11 29.85 1011 10 16.0934 0 0
3:15 am 03:15 Clear 34 1.3 24 -4.5 66 66 SW 6 9 29.85 1011 10 16.0934 0 0
3:35 am 03:35 Clear 35 1.6 23 -4.8 63 63 WSW 5 7 29.85 1011 10 16.0934 0 0
3:55 am 03:55 Clear 36 2.1 24 -4.7 61 61 WSW 6 9 29.85 1011 10 16.0934 0 0
4:15 am 04:15 Clear 36 2 23 -4.8 61 61 WSW 6 9 29.85 1011 10 16.0934 0 0
4:35 am 04:35 Clear 37 3 23 -4.8 57 57 WSW 6 9 29.85 1011 10 16.0934 0 0
4:55 am 04:55 Clear 37 2.7 23 -4.9 58 58 WSW 3 6 29.85 1011 10 16.0934 0 0
5:15 am 05:15 Clear 36 2.2 23 -5 59 59 S 7 11 29.85 1011 10 16.0934 0 0
5:35 am 05:35 Clear 33 0.6 23 -4.8 67 67 SW 6 9 29.88 1012 10 16.0934 0 0
5:55 am 05:55 Clear 33 0.8 23 -4.9 66 66 SW 3 6 29.83 1010 10 16.0934 0 0
6:15 am 06:15 Clear 33 0.4 23 -5 67 67 SSW 7 11 29.85 1011 10 16.0934 0 0
6:35 am 06:35 Clear 33 0.7 23 -5 66 66 Calm 29.83 1010 10 16.0934 0 0
6:55 am 06:55 Clear 34 0.9 23 -5 65 65 WSW 5 7 29.83 1010 10 16.0934 0 0
7:15 am 07:15 Clear 36 2.1 23 -5 60 60 WSW 6 9 29.83 1010 10 16.0934 0 0
7:35 am 07:35 Clear 37 2.5 23 -5 58 58 WSW 6 9 29.83 1010 10 16.0934 0 0
7:55 am 07:55 Clear 36 2.2 23 -5 59 59 WSW 8 13 29.83 1010 10 16.0934 0 0
8:15 am 08:15 Sunny 36 2.4 23 -5 59 59 WSW 7 11 29.83 1010 10 16.0934 0 0
8:35 am 08:35 Sunny 36 2.4 23 -4.8 59 59 WSW 5 7 29.83 1010 10 16.0934 0 0
8:55 am 08:55 Sunny 38 3.5 24 -4.7 55 55 SW 5 7 29.77 1008 10 16.0934 0 0
9:15 am 09:15 Sunny 40 4.5 24 -4.3 53 53 WSW 5 7 29.77 1008 10 16.0934 0 0
9:35 am 09:35 Sunny 40 4.5 25 -4.1 54 54 SW 7 11 29.77 1008 10 16.0934 0 0
9:55 am 09:55 Sunny 41 4.8 25 -3.9 54 54 SW 7 11 29.77 1008 10 16.0934 0 0
10:15 am 10:15 Sunny 41 4.8 26 -3.3 56 56 SW 6 9 29.77 1008 10 16.0934 0 0
10:35 am 10:35 Sunny 41 5 27 -3 57 57 SW 8 13 29.8 1009 10 16.0934 0 0
10:55 am 10:55 Sunny 42 5.6 27 -2.8 55 55 SW 9 15 29.8 1009 10 16.0934 0 0
11:15 am 11:15 Sunny 42 5.6 28 -2.2 58 58 SW 9 15 29.8 1009 10 16.0934 0 0
11:35 am 11:35 Sunny 43 6 28 -2.3 56 56 SW 8 13 29.77 1008 10 16.0934 0 0
11:55 am 11:55 Sunny 45 7.1 27 -2.9 49 49 WSW 6 9 29.74 1007 10 16.0934 0 0
12:15 pm 12:15 Sunny 46 7.7 26 -3.4 46 46 WSW 5 7 29.71 1006 10 16.0934 0 0
12:35 pm 12:35 Sunny 47 8.5 27 -3 45 45 SW 5 7 29.71 1006 10 16.0934 0 0
12:55 pm 12:55 Sunny 49 9.4 28 -2.5 44 44 SSW 3 6 29.71 1006 10 16.0934 0 0
1:15 pm 13:15 Sunny 51 10.4 28 -2.2 42 42 SW 5 7 29.65 1004 10 16.0934 0 0
1:35 pm 13:35 Sunny 52 11.3 28 -2 40 40 W 5 7 29.65 1004 10 16.0934 0 0
1:55 pm 13:55 Sunny 53 11.7 29 -1.7 40 40 SW 3 6 29.65 1004 10 16.0934 0 0
2:15 pm 14:15 Sunny 53 11.6 28 -2.1 39 39 SSW 6 9 29.62 1003 10 16.0934 0 0
2:35 pm 14:35 Sunny 53 11.9 29 -1.6 39 39 S 5 7 29.62 1003 10 16.0934 0 0
2:55 pm 14:55 Sunny 53 11.8 29 -1.6 40 40 S 6 9 29.62 1003 10 16.0934 0 0
3:15 pm 15:15 Sunny 53 11.8 29 -1.5 40 40 SSW 3 6 29.65 1004 10 16.0934 0 0
3:35 pm 15:35 Sunny 53 11.7 30 -1.2 41 41 SSW 3 6 29.65 1004 10 16.0934 0 0
3:55 pm 15:55 Sunny 53 11.5 30 -1.3 41 41 SSW 5 7 29.65 1004 10 16.0934 0 0
4:15 pm 16:15 Sunny 53 11.5 30 -0.9 43 43 SW 3 6 29.65 1004 10 16.0934 0 0
4:35 pm 16:35 Sunny 52 11.1 31 -0.7 44 44 S 3 6 29.65 1004 10 16.0934 0 0
4:55 pm 16:55 Sunny 50 9.8 32 -0.1 50 50 S 7 11 29.65 1004 10 16.0934 0 0
5:15 pm 17:15 Sunny 47 8.1 31 -0.5 55 55 S 9 15 29.68 1005 10 16.0934 0 0
5:35 pm 17:35 Sunny 45 7.3 29 -1.6 54 54 S 5 7 29.71 1006 10 16.0934 0 0
5:55 pm 17:55 Clear 42 5.3 28 -2 60 60 Calm 29.74 1007 10 16.0934 0 0
6:15 pm 18:15 Clear 42 5.3 28 -2.2 59 59 Calm 29.74 1007 10 16.0934 0 0
6:35 pm 18:35 Clear 39 3.9 28 -2.3 64 64 Calm 29.77 1008 10 16.0934 0 0
6:55 pm 18:55 Clear 37 2.6 27 -2.7 68 68 Calm 29.8 1009 10 16.0934 0 0
7:15 pm 19:15 Clear 38 3.3 27 -2.7 65 65 W 3 6 29.8 1009 10 16.0934 0 0
7:35 pm 19:35 Clear 37 2.7 27 -3 66 66 NW 5 7 29.8 1009 10 16.0934 0 0
7:55 pm 19:55 Clear 35 1.7 26 -3.1 71 71 NW 3 6 29.8 1009 10 16.0934 0 0
8:15 pm 20:15 Clear 34 1.2 26 -3.1 73 73 Calm 29.8 1009 10 16.0934 0 0
8:35 pm 20:35 Clear 35 1.8 27 -2.9 71 71 N 3 6 29.8 1009 10 16.0934 0 0
8:55 pm 20:55 Clear 35 1.6 26 -3.1 71 71 N 3 6 29.8 1009 10 16.0934 0 0
9:15 pm 21:15 Clear 34 1.1 27 -3 74 74 NNE 3 6 29.8 1009 10 16.0934 0 0
9:35 pm 21:35 Clear 33 0.6 26 -3.1 77 77 Calm 29.8 1009 10 16.0934 0 0
9:55 pm 21:55 Clear 35 1.8 28 -2.4 74 74 N 5 7 29.8 1009 10 16.0934 0 0
10:15 pm 22:15 Clear 36 2.4 29 -1.9 74 74 N 5 7 29.83 1010 10 16.0934 0 0
10:35 pm 22:35 Clear 33 0.5 28 -2.5 81 81 N 3 6 29.83 1010 10 16.0934 0 0
10:55 pm 22:55 Clear 34 1.1 29 -1.8 81 81 NNE 10 17 29.83 1010 10 16.0934 0 0
11:15 pm 23:15 Clear 35 1.7 31 -0.5 86 86 NNE 9 15 29.83 1010 10 16.0934 0 0
11:35 pm 23:35 Clear 33 0.8 30 -1.2 87 87 NNE 9 15 29.83 1010 10 16.0934 0 0
11:55 pm 23:55 Clear 32 0.1 30 -1.3 90 90 N 9 15 29.85 1011 10 16.0934 0 0

Powered by AerisWeather